owner,sensor,date,latitude,longitude,vertical_datum,direction_of_sea_water_velocity,sea_water_speed,upward_sea_water_velocity,qcFlag 
TABS,ioos:station:wmo:42051:1,1999-11-01T00:00:00Z,29.6350,-93.6417,2.0,118.7058854,5.267380753,-99999.0,'11133222,11111222,99999999' 
TABS,ioos:station:wmo:42051:1,1999-11-01T00:30:00Z,29.6350,-93.6417,2.0,130.984168,4.543709938,-99999.0,'11133222,11111222,99999999' 
TABS,ioos:station:wmo:42051:1,1999-11-01T01:00:00Z,29.6350,-93.6417,2.0,142.4026769,4.884393514,-99999.0,'11133222,11111222,99999999' 
TABS,ioos:station:wmo:42051:1,1999-11-01T01:30:00Z,29.6350,-93.6417,2.0,135.9775413,6.216373541,-99999.0,'11133222,11111222,99999999' 
TABS,ioos:station:wmo:42051:1,1999-11-01T02:00:00Z,29.6350,-93.6417,2.0,141.3266629,6.673305028,-99999.0,'11133222,11111222,99999999' 
TABS,ioos:station:wmo:42051:1,1999-11-01T02:30:00Z,29.6350,-93.6417,2.0,134.35227,9.383906436,-99999.0,'11133222,11111222,99999999' 
TABS,ioos:station:wmo:42051:1,1999-11-01T03:00:00Z,29.6350,-93.6417,2.0,148.704665,8.894065437,-99999.0,'11133222,11111222,99999999' 
TABS,ioos:station:wmo:42051:1,1999-11-01T03:30:00Z,29.6350,-93.6417,2.0,147.2218327,10.45464968,-99999.0,'11111222,11111222,99999999' 
TABS,ioos:station:wmo:42051:1,1999-11-01T04:00:00Z,29.6350,-93.6417,2.0,150.670627,10.94263222,-99999.0,'11111222,11111222,99999999' 
TABS,ioos:station:wmo:42051:1,1999-11-01T04:30:00Z,29.6350,-93.6417,2.0,152.8306509,12.72393414,-99999.0,'11111222,11111222,99999999' 
TABS,ioos:station:wmo:42051:1,1999-11-01T05:00:00Z,29.6350,-93.6417,2.0,152.3470392,14.13449681,-99999.0,'11111222,11111222,99999999' 
TABS,ioos:station:wmo:42051:1,1999-11-01T05:30:00Z,29.6350,-93.6417,2.0,163.4244788,14.61742111,-99999.0,'11111222,11111222,99999999' 
TABS,ioos:station:wmo:42051:1,1999-11-01T06:00:00Z,29.6350,-93.6417,2.0,163.9026755,15.0396609,-99999.0,'11111222,11111222,99999999' 
TABS,ioos:station:wmo:42051:1,1999-11-01T06:30:00Z,29.6350,-93.6417,2.0,167.2253557,16.19075353,-99999.0,'11111222,11111222,99999999' 
TABS,ioos:station:wmo:42051:1,1999-11-01T07:00:00Z,29.6350,-93.6417,2.0,170.256171,14.06285888,-99999.0,'11111222,11111222,99999999' 
TABS,ioos:station:wmo:42051:1,1999-11-01T07:30:00Z,29.6350,-93.6417,2.0,169.5938482,13.1767219,-99999.0,'11111222,11111222,99999999' 
TABS,ioos:station:wmo:42051:1,1999-11-01T08:00:00Z,29.6350,-93.6417,2.0,169.5321366,12.27427391,-99999.0,'11111222,11111222,99999999' 
TABS,ioos:station:wmo:42051:1,1999-11-01T08:30:00Z,29.6350,-93.6417,2.0,169.6578372,12.42180744,-99999.0,'11111222,11111222,99999999' 
TABS,ioos:station:wmo:42051:1,1999-11-01T09:00:00Z,29.6350,-93.6417,2.0,158.6342182,13.91641118,-99999.0,'11111222,11111222,99999999' 
TABS,ioos:station:wmo:42051:1,1999-11-01T09:30:00Z,29.6350,-93.6417,2.0,156.9580681,12.95342812,-99999.0,'11111222,11111222,99999999' 
TABS,ioos:station:wmo:42051:1,1999-11-01T10:00:00Z,29.6350,-93.6417,2.0,156.2280077,12.20554382,-99999.0,'11111222,11111222,99999999' 
TABS,ioos:station:wmo:42051:1,1999-11-01T10:30:00Z,29.6350,-93.6417,2.0,173.2998136,10.19965686,-99999.0,'11111222,11111222,99999999' 
TABS,ioos:station:wmo:42051:1,1999-11-01T11:00:00Z,29.6350,-93.6417,2.0,174.1185508,8.685718163,-99999.0,'11133222,11111222,99999999' 
TABS,ioos:station:wmo:42051:1,1999-11-01T11:30:00Z,29.6350,-93.6417,2.0,177.3381685,9.690454066,-99999.0,'11133222,11111222,99999999' 
TABS,ioos:station:wmo:42051:1,1999-11-01T12:00:00Z,29.6350,-93.6417,2.0,179.9997895,9.09,-99999.0,'11133222,11111222,99999999' 
TABS,ioos:station:wmo:42051:1,1999-11-01T12:30:00Z,29.6350,-93.6417,2.0,184.2623907,8.07232928,-99999.0,'11133222,11111222,99999999' 
TABS,ioos:station:wmo:42051:1,1999-11-01T13:00:00Z,29.6350,-93.6417,2.0,184.371326,9.708243919,-99999.0,'11133222,11111222,99999999' 
TABS,ioos:station:wmo:42051:1,1999-11-01T13:30:00Z,29.6350,-93.6417,2.0,178.1986332,9.544715816,-99999.0,'11133222,11111222,99999999' 
TABS,ioos:station:wmo:42051:1,1999-11-01T14:00:00Z,29.6350,-93.6417,2.0,174.7466737,9.720828154,-99999.0,'11133222,11111222,99999999' 
TABS,ioos:station:wmo:42051:1,1999-11-01T14:30:00Z,29.6350,-93.6417,2.0,178.328212,10.2843765,-99999.0,'11111222,11111222,99999999' 
TABS,ioos:station:wmo:42051:1,1999-11-01T15:00:00Z,29.6350,-93.6417,2.0,176.4010298,9.558849303,-99999.0,'11133222,11111222,99999999' 
TABS,ioos:station:wmo:42051:1,1999-11-01T15:30:00Z,29.6350,-93.6417,2.0,177.529314,10.43970306,-99999.0,'11111222,11111222,99999999' 
TABS,ioos:station:wmo:42051:1,1999-11-01T16:00:00Z,29.6350,-93.6417,2.0,169.0667376,8.646947438,-99999.0,'11133222,11111222,99999999' 
TABS,ioos:station:wmo:42051:1,1999-11-01T16:30:00Z,29.6350,-93.6417,2.0,166.1866265,9.968289723,-99999.0,'11133222,11111222,99999999' 
TABS,ioos:station:wmo:42051:1,1999-11-01T17:00:00Z,29.6350,-93.6417,2.0,167.6428212,9.76625312,-99999.0,'11133222,11111222,99999999' 
TABS,ioos:station:wmo:42051:1,1999-11-01T17:30:00Z,29.6350,-93.6417,2.0,160.5361353,10.74398902,-99999.0,'11111222,11111222,99999999' 
TABS,ioos:station:wmo:42051:1,1999-11-01T18:00:00Z,29.6350,-93.6417,2.0,159.8522353,9.522709698,-99999.0,'11133222,11111222,99999999' 
TABS,ioos:station:wmo:42051:1,1999-11-01T18:30:00Z,29.6350,-93.6417,2.0,156.8233496,10.21432817,-99999.0,'11111222,11111222,99999999' 
TABS,ioos:station:wmo:42051:1,1999-11-01T19:00:00Z,29.6350,-93.6417,2.0,149.6845754,11.21329568,-99999.0,'11111222,11111222,99999999' 
TABS,ioos:station:wmo:42051:1,1999-11-01T19:30:00Z,29.6350,-93.6417,2.0,147.1769744,10.99541723,-99999.0,'11111222,11111222,99999999' 
TABS,ioos:station:wmo:42051:1,1999-11-01T20:00:00Z,29.6350,-93.6417,2.0,149.2743908,11.95869976,-99999.0,'11111222,11111222,99999999' 
TABS,ioos:station:wmo:42051:1,1999-11-01T20:30:00Z,29.6350,-93.6417,2.0,149.5952131,10.01770932,-99999.0,'11111222,11111222,99999999' 
TABS,ioos:station:wmo:42051:1,1999-11-01T21:00:00Z,29.6350,-93.6417,2.0,152.6163469,9.392443771,-99999.0,'11133222,11111222,99999999' 
TABS,ioos:station:wmo:42051:1,1999-11-01T21:30:00Z,29.6350,-93.6417,2.0,149.5928368,7.942474426,-99999.0,'11133222,11111222,99999999' 
TABS,ioos:station:wmo:42051:1,1999-11-01T22:00:00Z,29.6350,-93.6417,2.0,150.4434496,7.541352664,-99999.0,'11133222,11111222,99999999' 
TABS,ioos:station:wmo:42051:1,1999-11-01T22:30:00Z,29.6350,-93.6417,2.0,146.873219,8.179449859,-99999.0,'11133222,11111222,99999999' 
TABS,ioos:station:wmo:42051:1,1999-11-01T23:00:00Z,29.6350,-93.6417,2.0,155.0661975,7.068840075,-99999.0,'11133222,11111222,99999999' 
TABS,ioos:station:wmo:42051:1,1999-11-01T23:30:00Z,29.6350,-93.6417,2.0,156.9987836,6.474758683,-99999.0,'11133222,11111222,99999999' 
TABS,ioos:station:wmo:42051:1,1999-11-02T00:00:00Z,29.6350,-93.6417,2.0,164.0399073,5.418874422,-99999.0,'11133222,11111222,99999999' 
TABS,ioos:station:wmo:42051:1,1999-11-02T00:30:00Z,29.6350,-93.6417,2.0,159.7327689,6.033547878,-99999.0,'11133222,11111222,99999999' 
TABS,ioos:station:wmo:42051:1,1999-11-02T01:00:00Z,29.6350,-93.6417,2.0,159.0019878,6.22326281,-99999.0,'11133222,11111222,99999999' 
TABS,ioos:station:wmo:42051:1,1999-11-02T01:30:00Z,29.6350,-93.6417,2.0,156.8278036,5.667186251,-99999.0,'11133222,11111222,99999999' 
TABS,ioos:station:wmo:42051:1,1999-11-02T02:00:00Z,29.6350,-93.6417,2.0,150.0922065,5.675852359,-99999.0,'11133222,11111222,99999999' 
TABS,ioos:station:wmo:42051:1,1999-11-02T02:30:00Z,29.6350,-93.6417,2.0,149.882415,5.341048586,-99999.0,'11133222,11111222,99999999' 
TABS,ioos:station:wmo:42051:1,1999-11-02T03:00:00Z,29.6350,-93.6417,2.0,140.7485447,6.353487231,-99999.0,'11133222,11111222,99999999' 
TABS,ioos:station:wmo:42051:1,1999-11-02T03:30:00Z,29.6350,-93.6417,2.0,129.2512448,6.353487231,-99999.0,'11133222,11111222,99999999' 
TABS,ioos:station:wmo:42051:1,1999-11-02T04:00:00Z,29.6350,-93.6417,2.0,132.7802444,5.477116029,-99999.0,'11133222,11111222,99999999' 
TABS,ioos:station:wmo:42051:1,1999-11-02T04:30:00Z,29.6350,-93.6417,2.0,126.2684479,6.288346365,-99999.0,'11133222,11111222,99999999' 
TABS,ioos:station:wmo:42051:1,1999-11-02T05:00:00Z,29.6350,-93.6417,2.0,122.9967497,7.106229661,-99999.0,'11133222,11111222,99999999' 
TABS,ioos:station:wmo:42051:1,1999-11-02T05:30:00Z,29.6350,-93.6417,2.0,127.8822948,6.7910603,-99999.0,'11133222,11111222,99999999' 
TABS,ioos:station:wmo:42051:1,1999-11-02T06:00:00Z,29.6350,-93.6417,2.0,123.0457776,7.647025566,-99999.0,'11133222,11111222,99999999' 
TABS,ioos:station:wmo:42051:1,1999-11-02T06:30:00Z,29.6350,-93.6417,2.0,121.1401226,8.353735691,-99999.0,'11133222,11111222,99999999' 
TABS,ioos:station:wmo:42051:1,1999-11-02T07:00:00Z,29.6350,-93.6417,2.0,116.1586438,9.458805421,-99999.0,'11133222,11111222,99999999' 
TABS,ioos:station:wmo:42051:1,1999-11-02T07:30:00Z,29.6350,-93.6417,2.0,111.4891512,10.56436463,-99999.0,'11111222,11111222,99999999' 
TABS,ioos:station:wmo:42051:1,1999-11-02T08:00:00Z,29.6350,-93.6417,2.0,112.374393,10.95471588,-99999.0,'11111222,11111222,99999999' 
TABS,ioos:station:wmo:42051:1,1999-11-02T08:30:00Z,29.6350,-93.6417,2.0,115.2910026,11.86751027,-99999.0,'11111222,11111222,99999999' 
TABS,ioos:station:wmo:42051:1,1999-11-02T09:00:00Z,29.6350,-93.6417,2.0,113.5895378,11.5447304,-99999.0,'11111222,11111222,99999999' 
TABS,ioos:station:wmo:42051:1,1999-11-02T09:30:00Z,29.6350,-93.6417,2.0,119.8360952,11.67788508,-99999.0,'11111222,11111222,99999999' 
TABS,ioos:station:wmo:42051:1,1999-11-02T10:00:00Z,29.6350,-93.6417,2.0,118.4870854,11.86678137,-99999.0,'11111222,11111222,99999999' 
TABS,ioos:station:wmo:42051:1,1999-11-02T10:30:00Z,29.6350,-93.6417,2.0,120.526037,10.55261579,-99999.0,'11111222,11111222,99999999' 
TABS,ioos:station:wmo:42051:1,1999-11-02T11:00:00Z,29.6350,-93.6417,2.0,118.6786318,12.7318891,-99999.0,'11111222,11111222,99999999' 
TABS,ioos:station:wmo:42051:1,1999-11-02T11:30:00Z,29.6350,-93.6417,2.0,120.5850461,11.41862514,-99999.0,'11111222,11111222,99999999' 
TABS,ioos:station:wmo:42051:1,1999-11-02T12:00:00Z,29.6350,-93.6417,2.0,123.3174259,11.94294771,-99999.0,'11111222,11111222,99999999' 
TABS,ioos:station:wmo:42051:1,1999-11-02T12:30:00Z,29.6350,-93.6417,2.0,126.8505879,11.92200067,-99999.0,'11111222,11111222,99999999' 
TABS,ioos:station:wmo:42051:1,1999-11-02T13:00:00Z,29.6350,-93.6417,2.0,118.8254857,10.20441081,-99999.0,'11111222,11111222,99999999' 
TABS,ioos:station:wmo:42051:1,1999-11-02T13:30:00Z,29.6350,-93.6417,2.0,113.7623242,8.140079852,-99999.0,'11133222,11111222,99999999' 
TABS,ioos:station:wmo:42051:1,1999-11-02T14:00:00Z,29.6350,-93.6417,2.0,111.247021,8.637094419,-99999.0,'11133222,11111222,99999999' 
TABS,ioos:station:wmo:42051:1,1999-11-02T14:30:00Z,29.6350,-93.6417,2.0,101.5448605,6.695461149,-99999.0,'11133222,11111222,99999999' 
TABS,ioos:station:wmo:42051:1,1999-11-02T15:00:00Z,29.6350,-93.6417,2.0,100.253574,4.999849998,-99999.0,'11133222,11111222,99999999' 
TABS,ioos:station:wmo:42051:1,1999-11-02T15:30:00Z,29.6350,-93.6417,2.0,87.38159666,6.566856173,-99999.0,'11133222,11111222,99999999' 
TABS,ioos:station:wmo:42051:1,1999-11-02T16:00:00Z,29.6350,-93.6417,2.0,90.0,6.85,-99999.0,'11133222,11111222,99999999' 
TABS,ioos:station:wmo:42051:1,1999-11-02T16:30:00Z,29.6350,-93.6417,2.0,96.95294121,4.956450343,-99999.0,'11133222,11111222,99999999' 
TABS,ioos:station:wmo:42051:1,1999-11-02T17:00:00Z,29.6350,-93.6417,2.0,98.18778287,4.212944339,-99999.0,'11133222,11111222,99999999' 
TABS,ioos:station:wmo:42051:1,1999-11-02T17:30:00Z,29.6350,-93.6417,2.0,105.4008732,4.480903927,-99999.0,'11133222,11111222,99999999' 
TABS,ioos:station:wmo:42051:1,1999-11-02T18:00:00Z,29.6350,-93.6417,2.0,94.99856073,3.443094538,-99999.0,'11133222,11111222,99999999' 
TABS,ioos:station:wmo:42051:1,1999-11-02T18:30:00Z,29.6350,-93.6417,2.0,104.149443,2.454465319,-99999.0,'11133222,11111222,99999999' 
TABS,ioos:station:wmo:42051:1,1999-11-02T19:00:00Z,29.6350,-93.6417,2.0,137.131503,2.851613578,-99999.0,'11133222,11111222,99999999' 
TABS,ioos:station:wmo:42051:1,1999-11-02T19:30:00Z,29.6350,-93.6417,2.0,152.0921796,2.862953021,-99999.0,'11133222,11111222,99999999' 
TABS,ioos:station:wmo:42051:1,1999-11-02T20:00:00Z,29.6350,-93.6417,2.0,143.0530196,2.978002686,-99999.0,'11133222,11111222,99999999' 
TABS,ioos:station:wmo:42051:1,1999-11-02T20:30:00Z,29.6350,-93.6417,2.0,139.7900143,2.540314941,-99999.0,'11133222,11111222,99999999' 
TABS,ioos:station:wmo:42051:1,1999-11-02T21:00:00Z,29.6350,-93.6417,2.0,134.9998948,2.743574311,-99999.0,'11133222,11111222,99999999' 
TABS,ioos:station:wmo:42051:1,1999-11-02T21:30:00Z,29.6350,-93.6417,2.0,133.2500629,3.473514071,-99999.0,'11133222,11111222,99999999' 
TABS,ioos:station:wmo:42051:1,1999-11-02T22:00:00Z,29.6350,-93.6417,2.0,127.480846,3.1881813,-99999.0,'11133222,11111222,99999999' 
TABS,ioos:station:wmo:42051:1,1999-11-02T22:30:00Z,29.6350,-93.6417,2.0,157.5392581,1.936930561,-99999.0,'11133222,11111222,99999999' 
TABS,ioos:station:wmo:42051:1,1999-11-02T23:00:00Z,29.6350,-93.6417,2.0,122.6658181,2.482680004,-99999.0,'11133222,11111222,99999999' 
TABS,ioos:station:wmo:42051:1,1999-11-02T23:30:00Z,29.6350,-93.6417,2.0,161.3719699,0.939201789,-99999.0,'11133222,11111222,99999999' 
TABS,ioos:station:wmo:42051:1,1999-11-03T00:00:00Z,29.6350,-93.6417,2.0,148.1245013,1.401320806,-99999.0,'11133222,11111222,99999999' 
TABS,ioos:station:wmo:42051:1,1999-11-03T00:30:00Z,29.6350,-93.6417,2.0,129.7739796,2.328991198,-99999.0,'11133222,11111222,99999999' 
TABS,ioos:station:wmo:42051:1,1999-11-03T01:00:00Z,29.6350,-93.6417,2.0,96.63249911,3.896074948,-99999.0,'11133222,11111222,99999999' 
TABS,ioos:station:wmo:42051:1,1999-11-03T01:30:00Z,29.6350,-93.6417,2.0,95.60843206,6.13938922,-99999.0,'11133222,11111222,99999999' 
TABS,ioos:station:wmo:42051:1,1999-11-03T02:00:00Z,29.6350,-93.6417,2.0,86.7044656,5.218630088,-99999.0,'11133222,11111222,99999999' 
TABS,ioos:station:wmo:42051:1,1999-11-03T02:30:00Z,29.6350,-93.6417,2.0,68.82139573,4.954644286,-99999.0,'11133222,11111222,99999999' 
TABS,ioos:station:wmo:42051:1,1999-11-03T03:00:00Z,29.6350,-93.6417,2.0,78.74934488,3.792888082,-99999.0,'11133222,11111222,99999999' 
TABS,ioos:station:wmo:42051:1,1999-11-03T03:30:00Z,29.6350,-93.6417,2.0,105.3437302,1.700617535,-99999.0,'11133222,11111222,99999999' 
TABS,ioos:station:wmo:42051:1,1999-11-03T04:00:00Z,29.6350,-93.6417,2.0,328.6961602,0.866083137,-99999.0,'11133222,11111222,99999999' 
TABS,ioos:station:wmo:42051:1,1999-11-03T04:30:00Z,29.6350,-93.6417,2.0,123.6899887,0.540832691,-99999.0,'11133222,11111222,99999999' 
TABS,ioos:station:wmo:42051:1,1999-11-03T05:00:00Z,29.6350,-93.6417,2.0,45.00010523,0.848528137,-99999.0,'11133222,11111222,99999999' 
TABS,ioos:station:wmo:42051:1,1999-11-03T05:30:00Z,29.6350,-93.6417,2.0,121.8752882,1.401320806,-99999.0,'11133222,11111222,99999999' 
TABS,ioos:station:wmo:42051:1,1999-11-03T06:00:00Z,29.6350,-93.6417,2.0,239.1491273,1.735569071,-99999.0,'11133222,11111222,99999999' 
TABS,ioos:station:wmo:42051:1,1999-11-03T06:30:00Z,29.6350,-93.6417,2.0,218.7533833,2.859545418,-99999.0,'11133222,11111222,99999999' 
TABS,ioos:station:wmo:42051:1,1999-11-03T07:00:00Z,29.6350,-93.6417,2.0,226.855838,3.056304959,-99999.0,'11133222,11111222,99999999' 
TABS,ioos:station:wmo:42051:1,1999-11-03T07:30:00Z,29.6350,-93.6417,2.0,237.3337609,2.482680004,-99999.0,'11133222,11111222,99999999' 
TABS,ioos:station:wmo:42051:1,1999-11-03T08:00:00Z,29.6350,-93.6417,2.0,221.3933841,3.372506486,-99999.0,'11133222,11111222,99999999' 
TABS,ioos:station:wmo:42051:1,1999-11-03T08:30:00Z,29.6350,-93.6417,2.0,221.0215002,2.955757094,-99999.0,'11133222,11111222,99999999' 
TABS,ioos:station:wmo:42051:1,1999-11-03T09:00:00Z,29.6350,-93.6417,2.0,190.7066058,2.42216845,-99999.0,'11133222,11111222,99999999' 
TABS,ioos:station:wmo:42051:1,1999-11-03T09:30:00Z,29.6350,-93.6417,2.0,145.3661931,2.357795581,-99999.0,'11133222,11111222,99999999' 
TABS,ioos:station:wmo:42051:1,1999-11-03T10:00:00Z,29.6350,-93.6417,2.0,171.8184579,3.16218279,-99999.0,'11133222,11111222,99999999' 
TABS,ioos:station:wmo:42051:1,1999-11-03T10:30:00Z,29.6350,-93.6417,2.0,156.5196056,3.73965239,-99999.0,'11133222,11111222,99999999' 
TABS,ioos:station:wmo:42051:1,1999-11-03T11:00:00Z,29.6350,-93.6417,2.0,150.2352683,3.605689948,-99999.0,'11133222,11111222,99999999' 
TABS,ioos:station:wmo:42051:1,1999-11-03T11:30:00Z,29.6350,-93.6417,2.0,151.8048764,2.201181501,-99999.0,'11133222,11111222,99999999' 
TABS,ioos:station:wmo:42051:1,1999-11-03T12:00:00Z,29.6350,-93.6417,2.0,179.9997895,1.34,-99999.0,'11133222,11111222,99999999' 
TABS,ioos:station:wmo:42051:1,1999-11-03T12:30:00Z,29.6350,-93.6417,2.0,0.0,0.0,-99999.0,'11133222,11111222,99999999' 
TABS,ioos:station:wmo:42051:1,1999-11-03T13:00:00Z,29.6350,-93.6417,2.0,325.3666141,2.357795581,-99999.0,'11133222,11111222,99999999' 
TABS,ioos:station:wmo:42051:1,1999-11-03T13:30:00Z,29.6350,-93.6417,2.0,331.0910944,1.530751449,-99999.0,'11133222,11111222,99999999' 
TABS,ioos:station:wmo:42051:1,1999-11-03T14:00:00Z,29.6350,-93.6417,2.0,336.8237705,3.404776057,-99999.0,'11133222,11111222,99999999' 
TABS,ioos:station:wmo:42051:1,1999-11-03T14:30:00Z,29.6350,-93.6417,2.0,319.9368244,3.697742555,-99999.0,'11133222,11111222,99999999' 
TABS,ioos:station:wmo:42051:1,1999-11-03T15:00:00Z,29.6350,-93.6417,2.0,319.7175208,5.072997142,-99999.0,'11133222,11111222,99999999' 
TABS,ioos:station:wmo:42051:1,1999-11-03T15:30:00Z,29.6350,-93.6417,2.0,310.9993856,7.499466648,-99999.0,'11133222,11111222,99999999' 
TABS,ioos:station:wmo:42051:1,1999-11-03T16:00:00Z,29.6350,-93.6417,2.0,322.7923755,5.424094394,-99999.0,'11133222,11111222,99999999' 
TABS,ioos:station:wmo:42051:1,1999-11-03T16:30:00Z,29.6350,-93.6417,2.0,312.9402095,5.901084646,-99999.0,'11133222,11111222,99999999' 
TABS,ioos:station:wmo:42051:1,1999-11-03T17:00:00Z,29.6350,-93.6417,2.0,314.220073,7.269731769,-99999.0,'11133222,11111222,99999999' 
TABS,ioos:station:wmo:42051:1,1999-11-03T17:30:00Z,29.6350,-93.6417,2.0,306.1890745,7.570534988,-99999.0,'11133222,11111222,99999999' 
TABS,ioos:station:wmo:42051:1,1999-11-03T18:00:00Z,29.6350,-93.6417,2.0,306.5914236,5.754068126,-99999.0,'11133222,11111222,99999999' 
TABS,ioos:station:wmo:42051:1,1999-11-03T18:30:00Z,29.6350,-93.6417,2.0,330.9275255,6.132699243,-99999.0,'11133222,11111222,99999999' 
TABS,ioos:station:wmo:42051:1,1999-11-03T19:00:00Z,29.6350,-93.6417,2.0,316.3408428,4.53379532,-99999.0,'11133222,11111222,99999999' 
TABS,ioos:station:wmo:42051:1,1999-11-03T19:30:00Z,29.6350,-93.6417,2.0,325.2443792,4.174841314,-99999.0,'11133222,11111222,99999999' 
TABS,ioos:station:wmo:42051:1,1999-11-03T20:00:00Z,29.6350,-93.6417,2.0,322.3558069,4.142378544,-99999.0,'11133222,11111222,99999999' 
TABS,ioos:station:wmo:42051:1,1999-11-03T20:30:00Z,29.6350,-93.6417,2.0,342.9079256,4.048826991,-99999.0,'11133222,11111222,99999999' 
TABS,ioos:station:wmo:42051:1,1999-11-03T21:00:00Z,29.6350,-93.6417,2.0,339.1838714,3.348581789,-99999.0,'11133222,11111222,99999999' 
TABS,ioos:station:wmo:42051:1,1999-11-03T21:30:00Z,29.6350,-93.6417,2.0,353.102799,3.747118893,-99999.0,'11133222,11111222,99999999' 
TABS,ioos:station:wmo:42051:1,1999-11-03T22:00:00Z,29.6350,-93.6417,2.0,5.226125647,4.940536408,-99999.0,'11133222,11111222,99999999' 
TABS,ioos:station:wmo:42051:1,1999-11-03T22:30:00Z,29.6350,-93.6417,2.0,13.3196656,5.816459404,-99999.0,'11133222,11111222,99999999' 
TABS,ioos:station:wmo:42051:1,1999-11-03T23:00:00Z,29.6350,-93.6417,2.0,35.52914629,7.692106344,-99999.0,'11133222,11111222,99999999' 
TABS,ioos:station:wmo:42051:1,1999-11-03T23:30:00Z,29.6350,-93.6417,2.0,36.50697055,8.522171085,-99999.0,'11133222,11111222,99999999' 
TABS,ioos:station:wmo:42051:1,1999-11-04T00:00:00Z,29.6350,-93.6417,2.0,35.73374896,9.177804748,-99999.0,'11133222,11111222,99999999' 
TABS,ioos:station:wmo:42051:1,1999-11-04T00:30:00Z,29.6350,-93.6417,2.0,39.87434709,10.6846853,-99999.0,'11111222,11111222,99999999' 
TABS,ioos:station:wmo:42051:1,1999-11-04T01:00:00Z,29.6350,-93.6417,2.0,37.05314327,10.63805433,-99999.0,'11111222,11111222,99999999' 
TABS,ioos:station:wmo:42051:1,1999-11-04T01:30:00Z,29.6350,-93.6417,2.0,39.29333019,10.59547545,-99999.0,'11111222,11111222,99999999' 
TABS,ioos:station:wmo:42051:1,1999-11-04T02:00:00Z,29.6350,-93.6417,2.0,39.17694522,10.38441621,-99999.0,'11111222,11111222,99999999' 
TABS,ioos:station:wmo:42051:1,1999-11-04T02:30:00Z,29.6350,-93.6417,2.0,37.87017773,10.19755363,-99999.0,'11111222,11111222,99999999' 
TABS,ioos:station:wmo:42051:1,1999-11-04T03:00:00Z,29.6350,-93.6417,2.0,32.72841526,9.913889247,-99999.0,'11133222,11111222,99999999' 
TABS,ioos:station:wmo:42051:1,1999-11-04T03:30:00Z,29.6350,-93.6417,2.0,28.84105755,8.333690659,-99999.0,'11133222,11111222,99999999' 
TABS,ioos:station:wmo:42051:1,1999-11-04T06:00:00Z,29.6350,-93.6417,2.0,19.70910259,8.391596987,-99999.0,'11133222,11111222,99999999' 
TABS,ioos:station:wmo:42051:1,1999-11-04T06:30:00Z,29.6350,-93.6417,2.0,21.59402708,7.689694402,-99999.0,'11133222,11111222,99999999' 
TABS,ioos:station:wmo:42051:1,1999-11-04T07:00:00Z,29.6350,-93.6417,2.0,24.19525575,8.003024428,-99999.0,'11133222,11111222,99999999' 
TABS,ioos:station:wmo:42051:1,1999-11-04T07:30:00Z,29.6350,-93.6417,2.0,34.96633301,9.091017545,-99999.0,'11133222,11111222,99999999' 
TABS,ioos:station:wmo:42051:1,1999-11-04T08:00:00Z,29.6350,-93.6417,2.0,45.00010523,9.899494937,-99999.0,'11133222,11111222,99999999' 
TABS,ioos:station:wmo:42051:1,1999-11-04T08:30:00Z,29.6350,-93.6417,2.0,50.82326524,10.38441621,-99999.0,'11111222,11111222,99999999' 
TABS,ioos:station:wmo:42051:1,1999-11-04T09:00:00Z,29.6350,-93.6417,2.0,41.54349414,10.55509356,-99999.0,'11111222,11111222,99999999' 
TABS,ioos:station:wmo:42051:1,1999-11-04T09:30:00Z,29.6350,-93.6417,2.0,49.51408313,10.78146558,-99999.0,'11111222,11111222,99999999' 
TABS,ioos:station:wmo:42051:1,1999-11-04T10:00:00Z,29.6350,-93.6417,2.0,50.70688027,10.59547545,-99999.0,'11111222,11111222,99999999' 
TABS,ioos:station:wmo:42051:1,1999-11-04T10:30:00Z,29.6350,-93.6417,2.0,47.35339659,10.33247308,-99999.0,'11111222,11111222,99999999' 
TABS,ioos:station:wmo:42051:1,1999-11-04T11:00:00Z,29.6350,-93.6417,2.0,48.97444657,9.079873347,-99999.0,'11133222,11111222,99999999' 
TABS,ioos:station:wmo:42051:1,1999-11-04T11:30:00Z,29.6350,-93.6417,2.0,49.0719096,10.45621825,-99999.0,'11111222,11111222,99999999' 
TABS,ioos:station:wmo:42051:1,1999-11-04T12:00:00Z,29.6350,-93.6417,2.0,53.98933275,10.13713964,-99999.0,'11111222,11111222,99999999' 
TABS,ioos:station:wmo:42051:1,1999-11-04T12:30:00Z,29.6350,-93.6417,2.0,64.09486013,11.26158515,-99999.0,'11111222,11111222,99999999' 
TABS,ioos:station:wmo:42051:1,1999-11-04T13:00:00Z,29.6350,-93.6417,2.0,55.83702548,10.079246,-99999.0,'11111222,11111222,99999999' 
TABS,ioos:station:wmo:42051:1,1999-11-04T13:30:00Z,29.6350,-93.6417,2.0,65.35696241,10.00084996,-99999.0,'11111222,11111222,99999999' 
TABS,ioos:station:wmo:42051:1,1999-11-04T14:00:00Z,29.6350,-93.6417,2.0,55.84393261,9.546706238,-99999.0,'11133222,11111222,99999999' 
TABS,ioos:station:wmo:42051:1,1999-11-04T14:30:00Z,29.6350,-93.6417,2.0,53.4932399,8.522171085,-99999.0,'11133222,11111222,99999999' 
TABS,ioos:station:wmo:42051:1,1999-11-04T15:00:00Z,29.6350,-93.6417,2.0,49.48470075,9.405030569,-99999.0,'11133222,11111222,99999999' 
TABS,ioos:station:wmo:42051:1,1999-11-04T15:30:00Z,29.6350,-93.6417,2.0,47.51931806,9.491475122,-99999.0,'11133222,11111222,99999999' 
TABS,ioos:station:wmo:42051:1,1999-11-04T16:00:00Z,29.6350,-93.6417,2.0,48.64613025,8.339526365,-99999.0,'11133222,11111222,99999999' 
TABS,ioos:station:wmo:42051:1,1999-11-04T16:30:00Z,29.6350,-93.6417,2.0,43.44071781,7.795203654,-99999.0,'11133222,11111222,99999999' 
TABS,ioos:station:wmo:42051:1,1999-11-04T17:00:00Z,29.6350,-93.6417,2.0,38.86789707,6.884184774,-99999.0,'11133222,11111222,99999999' 
TABS,ioos:station:wmo:42051:1,1999-11-04T17:30:00Z,29.6350,-93.6417,2.0,45.00010523,7.170062761,-99999.0,'11133222,11111222,99999999' 
TABS,ioos:station:wmo:42051:1,1999-11-04T18:00:00Z,29.6350,-93.6417,2.0,40.62856878,6.864765109,-99999.0,'11133222,11111222,99999999' 